Regional Weather Roundup
Issued by NWS

Home | Current Version | Previous Version | Text Only | Print | Product List | Glossary Off
Versions: 1 2 3 4 5 6 7 8 9 10 11 12 13 14 15 16 17 18 19 20 21 22 23 24 25 26 27 28 29 30 31 32 33 34 35 36 37 38 39 40 41 42 43 44 45 46 47 48 49 50

751
ASUS45 KBOI 111010
RWRID

IDAHO REGIONAL WEATHER ROUNDUP
NATIONAL WEATHER SERVICE BOISE ID
300 AM MST THU FEB 11 2016

NOTE: "FAIR" INDICATES FEW OR NO CLOUDS BELOW 12000 FEET
WITH NO SIGNIFICANT WEATHER AND/OR OBSTRUCTIONS TO VISIBILITY

IDZ012-014-111100-
SOUTHWEST IDAHO


CITY           SKY/WX    TMP DP  RH WIND       PRES   REMARKS
BOISE          CLEAR     30  28  92 E3        30.41S FOG
CALDWELL       MOCLDY    29  29 100 CALM      30.44S FOG
MOUNTAIN HOME  CLEAR     26  24  95 CALM      30.42S
$$

IDZ016-017-111100-
SOUTHCENTRAL IDAHO


CITY           SKY/WX    TMP DP  RH WIND       PRES   REMARKS
BURLEY         PTCLDY    23  21  92 N3        30.37
JEROME         CLEAR     26  22  84 NE7       30.38S WCI  18
TWIN FALLS     CLEAR     28  26  92 S3        30.38R FOG
$$

IDZ019>023-111100-
SOUTHEAST IDAHO


CITY           SKY/WX    TMP DP  RH WIND       PRES   REMARKS
IDAHO FALLS    CLOUDY    17  14  88 N8        30.41S WCI   7
POCATELLO      CLOUDY    20  18  92 E6        30.41S WCI  12
REXBURG        CLOUDY    20  17  88 NW5       30.39F WCI  13
$$

IDZ006-010-011-018-031-032-111100-
CENTRAL IDAHO MOUNTAINS


CITY           SKY/WX    TMP DP  RH WIND       PRES   REMARKS
MCCALL         MOCLDY    28  26  92 W3        30.34F
HAILEY         MOCLDY    23  19  86 NW3       30.38R
STANLEY          N/A     17  12  80 E3        30.37F
SALMON         CLOUDY    16  10  79 CALM      30.40R
CHALLIS        PTCLDY    17  13  84 S3        30.35R
$$

IDZ002-004-006-007-026-111100-
NORTHERN IDAHO


CITY           SKY/WX    TMP DP  RH WIND       PRES   REMARKS
LEWISTON       CLOUDY    48  34  58 CALM      30.32R
LOWELL           N/A     38  35  89 N5        30.37S WCI  34
COEUR D`ALENE  CLOUDY    36  34  93 SE3       30.27R
MULLAN PASS    CLOUDY    32  31  96 W6        30.24R WCI  26
$$




USA.gov is the U.S. government's official web portal to all federal, state and local government web resources and services.